Wind_Speed
40 43 46 20 25 24 23 8 28 29 29 34 38 38 45 44 44 46 48 50 51 52 50 50 50 49 48 50 52 53 54 54 56 51 52 54 55 54 53 51 49 47 42
38 36 45 38 23 24 29 22 36 36 35 38 35 46 48 47 48 50 53 55 55 54 52 52 52 54 55 54 54 52 52 53 55 55 50 53 55 56 57 57 51 50 46
39 39 33 34 31 31 34 30 37 38 41 42 45 47 49 50 50 54 56 56 55 55 55 55 55 56 55 52 51 50 50 50 50 51 50 50 50 51 54 57 55 54 49
37 39 39 39 38 36 37 37 41 43 44 45 47 52 53 54 54 56 57 57 57 58 57 56 55 54 52 50 48 49 49 49 49 51 51 49 53 53 51 53 55 54 51
39 37 41 42 42 35 41 43 45 47 48 50 52 52 52 54 57 58 58 58 58 56 54 53 53 52 51 51 49 48 49 48 48 50 49 50 49 51 52 51 50 53 52
43 44 43 43 44 45 45 46 47 50 50 50 51 53 55 58 58 59 59 54 53 52 50 50 49 50 52 50 51 50 49 48 46 46 47 49 49 51 53 52 52 52 51
49 50 50 50 50 48 48 48 49 48 50 53 54 56 58 58 59 56 52 52 52 53 54 52 52 52 52 52 52 54 54 50 46 45 43 44 47 50 52 52 54 53 52
53 53 53 52 51 52 52 52 52 54 58 60 59 57 57 56 52 49 48 49 51 54 52 52 51 50 53 55 52 46 44 38 37 39 38 37 38 43 48 52 53 51 51
54 55 54 54 54 53 55 59 62 61 59 56 55 55 51 48 48 49 49 50 50 51 53 52 54 56 50 35 29 28 26 31 35 35 37 37 37 37 39 46 49 48 49
50 52 53 53 55 57 58 59 57 54 51 52 50 46 46 47 49 49 50 49 47 50 50 52 55 39 28 25 23 25 26 29 31 34 38 42 41 38 36 39 46 46 48
48 49 51 53 55 57 54 53 50 50 49 46 44 47 49 49 50 50 48 46 46 48 50 50 36 26 24 24 25 27 29 29 29 30 34 41 43 42 35 33 40 47 49
49 51 53 54 52 50 49 50 50 47 44 43 46 49 51 51 50 50 47 44 44 45 46 47 35 24 25 28 23 14 11 17 19 28 35 36 34 33 38 33 34 41 43
52 53 53 50 50 48 50 49 45 43 44 47 50 51 51 49 48 48 45 44 44 42 43 39 16 15 14 7 12 14 14 23 27 37 33 28 24 29 29 31 34 36 41
54 51 49 49 49 49 48 44 44 46 48 50 51 49 48 45 42 41 39 39 38 36 37 24 16 15 9 8 13 13 22 30 34 33 28 16 13 16 20 27 30 33 38
50 48 49 48 47 45 43 45 47 50 50 50 47 43 41 39 38 36 34 32 31 28 32 19 18 13 12 15 21 23 27 33 34 29 26 18 18 19 9 13 19 27 33
47 47 47 44 41 42 45 49 50 50 49 45 41 40 39 38 36 34 32 30 26 25 29 18 13 10 12 17 23 28 28 36 36 25 23 21 12 15 10 12 14 16 20
45 44 41 39 41 44 46 48 50 48 43 39 40 42 42 40 36 34 31 28 26 21 26 17 13 9 17 21 25 26 30 32 37 27 22 18 16 10 11 6 9 10 14
40 37 39 40 43 45 48 46 42 39 41 45 46 46 45 41 34 32 28 23 21 17 25 19 21 20 16 20 24 27 26 29 31 36 20 17 8 9 6 7 8 9 15
35 37 40 42 44 45 41 38 39 42 45 46 47 46 44 38 31 28 23 18 13 16 19 21 15 15 14 18 21 22 21 23 25 30 28 17 8 6 7 3 4 10 13
37 39 41 45 43 38 34 36 41 45 47 49 47 45 39 36 28 24 18 16 11 10 11 18 18 18 17 17 19 19 18 19 22 26 29 27 19 9 3 14 5 7 16
37 38 40 37 36 31 30 36 43 45 47 44 41 35 29 25 21 18 15 13 16 17 12 19 14 15 19 21 14 15 16 15 18 20 24 28 29 18 19 4 14 11 9
38 38 35 31 27 28 32 38 42 44 42 38 33 22 12 8 11 9 8 10 12 14 12 14 18 13 10 9 11 10 14 18 20 20 22 21 20 27 24 20 10 8 11
37 34 30 26 24 24 29 34 39 41 36 34 25 20 18 9 3 5 5 10 14 13 5 6 12 13 10 9 10 15 18 18 20 21 21 21 20 17 17 24 28 13 14
33 29 26 24 22 22 26 30 33 35 28 29 23 23 22 11 7 6 6 9 8 7 8 9 14 14 12 13 15 17 18 19 19 20 22 21 19 18 15 14 14 17 22
30 25 24 21 19 20 24 25 27 28 29 26 22 22 20 20 17 9 10 14 13 13 12 11 12 12 12 13 14 15 17 19 21 21 19 19 19 17 17 15 13 12 11
26 23 23 19 18 19 20 21 23 24 24 25 23 20 18 16 16 15 14 13 13 14 15 15 16 17 17 17 17 18 19 21 23 23 24 24 24 22 19 18 18 15 14
Wind_Direction
333 317 322 273 287 328 310 292 291 313 307 293 291 295 301 301 307 310 308 306 310 307 304 302 299 297 296 295 294 292 289 285 281 277 272 268 266 265 265 265 264 263 260
312 331 332 327 327 305 298 302 297 301 301 299 288 300 303 312 313 307 309 311 308 305 305 303 301 300 299 298 295 291 286 283 281 278 270 268 265 262 260 261 260 261 259
322 326 321 314 312 300 300 307 300 302 304 307 304 304 311 311 308 312 310 308 307 307 306 305 302 300 298 295 291 288 284 280 277 275 271 267 263 261 258 256 254 255 254
318 313 308 303 302 303 305 308 307 308 306 306 307 313 312 312 312 311 310 309 309 307 305 303 301 297 296 293 288 286 284 282 280 277 275 269 266 263 260 257 250 249 250
307 303 297 298 303 305 311 312 311 309 308 312 314 311 310 312 312 310 309 308 307 304 304 303 301 299 297 294 289 285 286 285 280 280 275 272 266 261 255 254 253 246 246
303 303 302 303 307 312 312 310 311 314 315 311 309 311 313 312 310 309 308 307 305 304 303 303 301 298 296 292 289 286 288 284 280 278 274 273 268 262 258 251 250 246 238
306 307 308 312 315 315 313 314 313 311 310 310 312 314 313 310 308 307 308 307 304 303 301 301 298 297 296 292 290 288 287 285 278 277 277 274 267 261 257 250 244 243 236
309 311 315 316 316 315 315 314 312 313 313 313 315 312 308 307 306 305 305 306 304 304 301 301 304 301 300 297 292 286 285 279 279 277 277 278 271 266 260 249 243 243 237
311 314 314 312 312 311 312 312 310 308 309 311 307 305 304 303 302 302 303 302 301 304 306 304 304 306 300 292 291 289 285 283 283 283 283 282 278 272 264 253 242 241 236
303 303 304 305 304 302 304 305 307 308 306 304 304 302 301 300 301 302 302 303 302 307 310 307 310 306 302 298 294 287 282 282 281 281 285 283 277 271 267 255 241 238 231
302 302 300 300 302 304 305 307 306 305 305 304 303 301 302 302 301 301 302 304 305 311 312 317 313 303 293 291 292 291 290 287 287 286 282 282 281 277 265 257 253 240 229
300 300 302 302 304 305 307 305 305 305 303 303 303 302 302 303 303 303 304 306 309 314 312 316 305 295 297 303 310 334 332 315 291 303 293 290 285 271 259 250 243 239 230
302 304 305 306 307 308 306 304 303 302 302 303 303 304 305 305 305 304 302 303 309 314 316 321 325 318 324 358 344 329 312 315 305 315 308 304 278 260 265 262 249 235 233
305 305 305 307 307 305 303 304 302 303 305 305 306 307 307 307 308 308 302 304 309 311 314 310 318 335 339 334 323 325 308 313 317 323 317 311 299 276 263 261 251 244 238
305 306 307 306 304 304 305 304 305 305 306 306 306 308 309 313 311 309 305 304 307 312 313 302 311 307 331 352 343 328 321 322 336 336 321 312 307 312 276 258 252 250 239
307 306 304 304 304 306 305 306 307 308 309 308 308 310 312 315 316 312 310 311 313 314 317 307 283 310 332 329 328 328 334 338 348 345 328 326 293 303 296 268 265 253 239
305 303 304 305 306 306 308 309 310 311 310 310 311 311 310 312 314 311 310 311 314 315 316 281 294 283 299 316 326 332 339 342 346 358 343 333 306 264 266 309 254 234 215
303 304 305 307 308 309 310 311 312 312 312 311 309 306 305 306 307 307 306 305 312 318 321 306 264 271 296 310 322 332 341 344 348 353 359 348 337 266 260 250 233 210 206
305 307 308 309 310 312 314 316 317 317 314 310 307 303 300 300 300 300 298 303 311 316 325 319 285 272 280 309 323 331 344 349 350 351 9 8 337 337 269 258 254 220 212
307 309 312 314 314 317 320 325 328 324 320 315 309 303 298 291 290 288 285 276 311 333 344 334 308 293 283 303 321 333 343 353 353 353 355 16 21 10 188 212 224 234 221
307 310 313 315 316 320 325 326 331 330 327 323 319 308 285 281 269 274 275 274 298 310 313 338 326 314 302 295 315 331 343 359 4 4 4 11 7 38 62 173 179 229 246
309 312 315 315 317 321 327 334 338 338 340 344 339 334 322 286 254 251 285 291 310 303 298 318 337 331 318 324 335 351 360 355 354 357 1 7 9 5 21 32 117 187 226
310 312 315 316 318 320 330 342 346 348 351 347 7 22 14 360 300 261 256 301 314 308 301 318 330 333 331 333 334 334 336 341 343 343 349 351 358 3 4 1 3 30 79
308 313 313 316 318 323 331 340 348 358 4 14 15 17 18 5 348 288 301 316 312 327 329 313 307 316 317 319 313 315 322 327 331 332 333 339 341 344 353 356 355 355 355
309 311 312 310 314 320 328 338 348 355 360 3 7 8 9 13 30 47 43 26 21 11 14 0 350 347 342 336 329 323 319 320 322 325 325 325 328 331 332 336 333 329 328
306 307 308 303 306 316 325 333 343 350 356 3 7 11 15 17 26 26 22 15 13 7 359 355 347 343 337 332 327 321 317 316 316 316 316 318 319 319 317 315 315 311 303
Height
5912 5906 5896 5892 5895 5896 5895 5889 5892 5892 5889 5884 5879 5874 5870 5865 5858 5853 5851 5846 5838 5833 5828 5824 5820 5815 5811 5807 5803 5799 5797 5793 5791 5797 5796 5794 5794 5794 5794 5795 5798 5800 5805
5905 5903 5894 5886 5892 5891 5892 5884 5885 5883 5880 5875 5868 5865 5860 5851 5845 5845 5837 5830 5823 5818 5813 5809 5804 5799 5794 5789 5786 5783 5780 5775 5772 5773 5778 5775 5776 5776 5778 5779 5783 5785 5789
5898 5892 5891 5893 5888 5885 5881 5874 5875 5872 5867 5860 5858 5853 5844 5840 5837 5827 5820 5814 5808 5801 5796 5791 5787 5782 5778 5773 5769 5765 5762 5760 5757 5754 5758 5757 5757 5757 5758 5761 5765 5768 5772
5893 5891 5887 5886 5882 5875 5868 5864 5862 5856 5853 5850 5843 5835 5832 5826 5819 5812 5805 5798 5792 5786 5781 5775 5770 5765 5761 5757 5754 5750 5746 5744 5741 5738 5738 5741 5739 5741 5742 5743 5746 5751 5756
5890 5886 5882 5876 5870 5864 5857 5853 5850 5847 5843 5833 5827 5825 5818 5809 5802 5796 5790 5784 5778 5773 5767 5761 5755 5750 5745 5741 5738 5735 5731 5728 5725 5722 5722 5722 5723 5721 5724 5727 5730 5734 5741
5881 5879 5875 5868 5860 5852 5848 5845 5840 5831 5824 5821 5817 5810 5802 5795 5789 5783 5777 5771 5765 5760 5754 5749 5743 5737 5730 5725 5720 5717 5715 5711 5710 5707 5706 5704 5705 5704 5706 5709 5713 5716 5725
5870 5863 5856 5849 5843 5839 5836 5831 5825 5820 5816 5810 5802 5794 5788 5782 5776 5770 5764 5759 5754 5748 5742 5736 5730 5723 5715 5709 5704 5700 5696 5693 5692 5691 5691 5688 5687 5684 5686 5691 5693 5697 5707
5854 5847 5842 5836 5831 5827 5822 5817 5813 5808 5801 5794 5788 5783 5777 5771 5765 5760 5756 5750 5743 5736 5728 5721 5715 5708 5699 5691 5685 5681 5680 5678 5678 5676 5675 5675 5672 5670 5669 5673 5677 5683 5691
5842 5837 5833 5829 5824 5820 5814 5808 5802 5797 5791 5786 5780 5774 5768 5762 5757 5752 5747 5741 5734 5725 5717 5707 5699 5690 5680 5674 5672 5671 5670 5670 5667 5666 5663 5661 5659 5657 5656 5656 5663 5666 5675
5841 5835 5828 5823 5817 5813 5809 5802 5795 5789 5784 5777 5771 5765 5761 5755 5748 5742 5736 5729 5722 5713 5704 5694 5683 5674 5669 5666 5665 5663 5663 5660 5658 5655 5651 5647 5644 5643 5644 5644 5648 5653 5659
5835 5828 5822 5817 5811 5805 5797 5790 5784 5779 5773 5768 5763 5757 5750 5744 5737 5729 5722 5716 5709 5700 5691 5682 5671 5666 5663 5660 5658 5656 5654 5651 5648 5644 5640 5635 5630 5628 5629 5631 5635 5639 5645
5826 5820 5814 5807 5800 5793 5787 5781 5775 5769 5763 5758 5753 5746 5739 5731 5723 5716 5709 5701 5695 5688 5680 5671 5665 5660 5657 5653 5650 5647 5644 5642 5639 5634 5628 5622 5616 5613 5613 5617 5621 5627 5635
5814 5807 5800 5793 5787 5782 5776 5771 5765 5759 5754 5749 5741 5733 5725 5717 5711 5703 5697 5691 5685 5679 5672 5664 5657 5654 5650 5649 5646 5643 5640 5636 5630 5623 5614 5609 5603 5603 5605 5607 5611 5616 5623
5802 5795 5789 5783 5777 5771 5765 5761 5755 5748 5742 5735 5727 5721 5714 5706 5700 5692 5687 5682 5676 5672 5666 5660 5656 5653 5649 5646 5643 5640 5635 5630 5623 5614 5605 5599 5597 5594 5596 5598 5601 5605 5610
5790 5784 5779 5773 5767 5760 5754 5748 5742 5735 5730 5722 5716 5710 5704 5697 5689 5683 5678 5675 5670 5665 5660 5655 5653 5649 5646 5644 5641 5637 5631 5624 5616 5607 5600 5595 5593 5589 5589 5591 5592 5595 5598
5779 5774 5768 5762 5755 5750 5744 5736 5730 5724 5716 5709 5704 5698 5692 5688 5682 5675 5670 5665 5663 5659 5655 5650 5648 5646 5644 5642 5638 5633 5626 5619 5612 5604 5597 5592 5590 5589 5587 5587 5587 5587 5589
5769 5763 5757 5752 5747 5741 5734 5727 5718 5709 5705 5699 5693 5687 5682 5678 5674 5668 5662 5658 5655 5652 5650 5647 5645 5643 5641 5639 5636 5630 5624 5618 5610 5602 5595 5590 5586 5585 5584 5580 5583 5584 5587
5759 5754 5748 5743 5737 5731 5724 5716 5710 5702 5694 5687 5681 5676 5671 5667 5665 5660 5656 5653 5650 5646 5643 5640 5640 5640 5638 5636 5633 5628 5622 5616 5609 5602 5595 5590 5585 5582 5581 5581 5582 5583 5585
5750 5745 5739 5734 5728 5721 5714 5707 5700 5693 5685 5677 5669 5662 5657 5655 5654 5652 5649 5648 5645 5643 5640 5636 5635 5635 5635 5633 5631 5627 5622 5616 5610 5603 5595 5591 5586 5582 5581 5580 5580 5582 5583
5742 5737 5731 5723 5716 5712 5707 5699 5692 5683 5674 5665 5656 5648 5643 5642 5643 5643 5642 5642 5641 5640 5638 5635 5632 5632 5631 5629 5627 5624 5621 5616 5610 5605 5599 5592 5588 5583 5580 5577 5577 5580 5582
5734 5730 5724 5717 5709 5705 5700 5694 5685 5675 5664 5652 5641 5632 5628 5629 5632 5634 5636 5637 5636 5635 5634 5632 5629 5628 5627 5626 5624 5622 5619 5616 5612 5607 5601 5595 5590 5586 5582 5578 5575 5579 5582
5726 5722 5717 5712 5706 5699 5695 5689 5680 5668 5657 5645 5633 5625 5622 5622 5626 5629 5632 5632 5632 5631 5630 5629 5627 5624 5622 5622 5621 5619 5617 5614 5611 5607 5603 5600 5595 5590 5586 5582 5580 5579 5580
5718 5714 5710 5706 5702 5697 5692 5686 5677 5666 5655 5646 5636 5629 5626 5624 5625 5627 5629 5629 5628 5627 5626 5625 5625 5623 5621 5620 5619 5617 5614 5612 5609 5606 5604 5601 5598 5594 5590 5585 5582 5582 5581
5711 5707 5703 5699 5697 5694 5689 5683 5676 5668 5658 5650 5642 5637 5632 5629 5627 5627 5628 5628 5626 5624 5624 5622 5622 5620 5619 5617 5616 5614 5612 5609 5607 5605 5602 5599 5597 5594 5591 5588 5586 5584 5582
5705 5701 5697 5695 5692 5690 5686 5681 5675 5669 5662 5654 5648 5642 5637 5633 5630 5628 5628 5627 5625 5624 5623 5621 5620 5619 5617 5615 5612 5610 5608 5606 5603 5601 5600 5597 5595 5592 5590 5588 5586 5585 5583
5698 5695 5692 5690 5688 5686 5682 5679 5674 5668 5663 5658 5651 5646 5642 5638 5634 5631 5630 5629 5627 5625 5623 5621 5619 5616 5614 5612 5609 5607 5604 5602 5599 5597 5595 5592 5590 5588 5587 5585 5583 5582 5582